Location: ????????
(55.6333°N, 37.7000°E)
Time: 02:19:24
(UTC+00:00)

SL-16 R/B - Pass Details

Date: 19 May 2025
Orbit: 985 x 1006 km, 99.7° (Epoch: 14 June)

Event Time Altitude Azimuth Distance (km) Brightness Sun altitude
Rises 23:00:59 0° 125° (SE) 3,689 5.4 -11.7°
Reaches altitude 10° 23:03:38 10° 117° (ESE) 2,745 4.8 -11.6°
Maximum altitude 23:09:07 35° 54° (NE) 1,540 4.2 -11.3°
Drops below altitude 10° 23:14:38 10° 351° (N) 2,766 5.8 -10.9°
Sets 23:17:18 0° 344° (NNW) 3,721 6.3 -10.8°
